Change the Weather History Date:

Monday, March 24, 2014

  Actual Average Record
Temperature  
Mean Temperature 34 °F 49 °F  
Max Temperature 43 °F 60 °F 83 °F (1967)
Min Temperature 24 °F 39 °F -3 °F (1974)
Degree Days  
Heating Degree Days 31 16  
Month to date heating degree days 569 482  
Since 1 July heating degree days 4788 4099  
Cooling Degree Days 0 0  
Month to date cooling degree days 0 0  
Year to date cooling degree days 0 0  
Moisture  
Dew Point 24 °F    
Average Humidity 63    
Maximum Humidity 92    
Minimum Humidity 34    
Precipitation  
Precipitation 0.01 in 0.09 in 1.40 in (1969)
Month to date precipitation 0.43 1.98  
Year to date precipitation 1.21 5.58  
Sea Level Pressure  
Sea Level Pressure 30.26 in    
Wind  
Wind Speed 8 mph (NNW)    
Max Wind Speed 14 mph    
Max Gust Speed 18 mph    
Visibility 7 miles    
Events Snow    
T = Trace of Precipitation, MM = Missing Value Source: NWS Daily Summary

Daily Weather History Graph

Daily Weather History Graph

Search for Another Location

Airport or City:

Trip Planner

Search our weather history database for the weather conditions in past years. The results will help you decide how hot, cold, wet, or windy it might be!

Date:

Astronomy

Mar. 24, 2014 Rise Set
Actual Time 7:09 AM CDT 7:28 PM CDT
Civil Twilight 6:43 AM CDT 7:55 PM CDT
Nautical Twilight 6:12 AM CDT 8:26 PM CDT
Astronomical Twilight 5:40 AM CDT 8:58 PM CDT
Moon 2:36 AM CDT (3/24) 12:58 PM CDT (3/24)
Length of Visible Light 13h 11m
Length of Day
12h 18m
Last Quarter, 43% of the Moon is Illuminated
Mar 24
Last Quarter
Mar 30
New
Apr 7
First Quarter
Apr 15
Full
Apr 22
Last Quarter

Hourly Weather History & Observations

Time (CDT) Temp. Windchill Dew Point Humidity Pressure Visibility Wind Dir Wind Speed Gust Speed Precip Events Conditions
12:53 AM 28.0 °F 22.8 °F 10.9 °F 49% 30.37 in 10.0 mi ENE 4.6 mph - N/A   Clear
1:53 AM 27.0 °F 21.6 °F 10.9 °F 51% 30.35 in 10.0 mi East 4.6 mph - N/A   Clear
2:53 AM 24.1 °F 18.2 °F 12.0 °F 60% 30.36 in 10.0 mi NE 4.6 mph - N/A   Clear
3:53 AM 25.0 °F 17.1 °F 12.0 °F 58% 30.34 in 10.0 mi ESE 6.9 mph - N/A   Mostly Cloudy
4:53 AM 26.1 °F 19.4 °F 14.0 °F 60% 30.34 in 10.0 mi ENE 5.8 mph - N/A   Overcast
5:53 AM 27.0 °F 20.5 °F 14.0 °F 58% 30.35 in 10.0 mi ENE 5.8 mph - N/A   Overcast
6:53 AM 28.9 °F 18.2 °F 12.9 °F 51% 30.34 in 10.0 mi SE 13.8 mph - N/A   Overcast
7:53 AM 30.0 °F 23.2 °F 14.0 °F 51% 30.34 in 10.0 mi ESE 6.9 mph - N/A   Overcast
8:53 AM 32.0 °F 23.0 °F 15.1 °F 50% 30.33 in 10.0 mi ESE 11.5 mph - N/A   Overcast
9:53 AM 34.0 °F 25.0 °F 15.1 °F 46% 30.33 in 10.0 mi ESE 12.7 mph - N/A   Overcast
10:53 AM 37.0 °F 29.3 °F 15.1 °F 41% 30.32 in 10.0 mi SE 11.5 mph - N/A   Mostly Cloudy
11:53 AM 39.0 °F 32.8 °F 16.0 °F 39% 30.31 in 10.0 mi East 9.2 mph - N/A   Overcast
12:53 PM 41.0 °F 34.7 °F 16.0 °F 36% 30.27 in 10.0 mi ESE 10.4 mph - N/A   Overcast
1:53 PM 43.0 °F 39.5 °F 18.0 °F 37% 30.25 in 10.0 mi ESE 5.8 mph - N/A   Overcast
2:53 PM 42.1 °F 37.1 °F 25.0 °F 51% 30.23 in 10.0 mi SSW 8.1 mph - N/A   Overcast
3:53 PM 41.0 °F 38.0 °F 27.0 °F 57% 30.22 in 10.0 mi WSW 4.6 mph - N/A   Overcast
4:34 PM 39.0 °F 34.0 °F 28.9 °F 67% 30.19 in 5.0 mi NW 6.9 mph - N/A   Haze
4:53 PM 37.0 °F 32.4 °F 30.0 °F 76% 30.22 in 4.0 mi NW 5.8 mph - 0.00 in Snow Light Snow
5:53 PM 36.0 °F - 32.0 °F 86% 30.22 in 3.0 mi Calm Calm - 0.00 in Snow Light Snow
6:05 PM 36.0 °F 31.1 °F 33.1 °F 89% 30.20 in 4.0 mi NW 5.8 mph - 0.00 in Snow Light Snow
6:20 PM 36.0 °F 32.1 °F 33.1 °F 89% 30.20 in 3.0 mi WNW 4.6 mph - 0.00 in Snow Light Snow
6:46 PM 35.1 °F 32.2 °F 33.1 °F 92% 30.20 in 3.0 mi WNW 3.5 mph - 0.01 in Snow Light Snow
6:53 PM 36.0 °F 32.1 °F 33.1 °F 89% 30.23 in 3.0 mi NW 4.6 mph - 0.01 in Snow Light Snow
7:03 PM 35.1 °F 32.2 °F 32.0 °F 89% 30.20 in 4.0 mi WNW 3.5 mph - 0.00 in Snow Light Snow
7:10 PM 35.1 °F 32.2 °F 32.0 °F 89% 30.20 in 4.0 mi NW 3.5 mph - 0.00 in Snow Light Snow
7:35 PM 35.1 °F 31.0 °F 33.1 °F 92% 30.20 in 6.0 mi West 4.6 mph - 0.00 in   Overcast
7:53 PM 35.1 °F 30.1 °F 33.1 °F 92% 30.23 in 7.0 mi WNW 5.8 mph - 0.00 in   Overcast
8:29 PM 36.0 °F 29.6 °F 33.1 °F 89% 30.21 in 7.0 mi WNW 8.1 mph - N/A   Overcast
8:53 PM 36.0 °F 29.6 °F 33.1 °F 89% 30.24 in 8.0 mi WNW 8.1 mph - N/A   Overcast
9:53 PM 34.0 °F 28.0 °F 30.0 °F 85% 30.24 in 6.0 mi WNW 6.9 mph - N/A   Scattered Clouds
10:23 PM 33.1 °F 26.1 °F 30.0 °F 89% 30.22 in 5.0 mi West 8.1 mph - N/A   Mostly Cloudy
10:53 PM 34.0 °F 26.6 °F 30.0 °F 85% 30.25 in 6.0 mi NW 9.2 mph - N/A   Overcast
11:38 PM 32.0 °F 24.8 °F 28.0 °F 85% 30.22 in 6.0 mi WNW 8.1 mph - N/A   Scattered Clouds
11:53 PM 32.0 °F 24.8 °F 28.0 °F 85% 30.25 in 6.0 mi WNW 8.1 mph - N/A   Partly Cloudy